Fort Knox, KY

1:48 PM EDT on August 20, 2017 (GMT -0400)
Godman Army Air Field

Weather History for KFTK - October, 2013

Change the Weather History Date:

Sunday, October 6, 2013

  Actual Average Record
Temperature  
Mean Temperature 62 °F -  
Max Temperature 71 °F 70 °F 88 °F (2007)
Min Temperature 53 °F 48 °F 37 °F (2001)
Degree Days  
Heating Degree Days 2    
Growing Degree Days 12 (Base 50)    
Moisture  
Dew Point 62 °F    
Average Humidity 97    
Maximum Humidity 100    
Minimum Humidity 82    
Precipitation  
Precipitation 0.87 in - - ()
Sea Level Pressure  
Sea Level Pressure 29.85 in    
Wind  
Wind Speed 7 mph (SW)    
Max Wind Speed 17 mph    
Max Gust Speed 26 mph    
Visibility 8 miles    
Events Rain , Thunderstorm    
Averages and records for this station are not official NWS values.
T = Trace of Precipitation, MM = Missing Value Source: NWS Daily Summary

Daily Weather History Graph

Daily Weather History Graph

Search for Another Location

Airport or City:

Trip Planner

Search our weather history database for the weather conditions in past years. The results will help you decide how hot, cold, wet, or windy it might be!

Date:

Astronomy

Oct. 06, 2013 Rise Set
Actual Time 7:44 AM EDT 7:18 PM EDT
Civil Twilight 7:17 AM EDT 7:45 PM EDT
Nautical Twilight 6:47 AM EDT 8:15 PM EDT
Astronomical Twilight 6:16 AM EDT 8:46 PM EDT
Moon 9:25 AM EDT (10/6) 8:20 PM EDT (10/6)
Length of Visible Light 12h 27m
Length of Day
11h 34m
Waxing Crescent, 3% of the Moon is Illuminated
Oct 6
Waxing Crescent
Oct 11
First Quarter
Oct 18
Full
Oct 26
Last Quarter
Nov 3
New

Hourly Weather History & Observations

Time (EDT) Temp. Dew Point Humidity Pressure Visibility Wind Dir Wind Speed Gust Speed Precip Events Conditions
12:00 AM 68.0 °F 68.0 °F 100% 29.93 in 10.0 mi ENE 6.9 mph - N/A   Overcast
12:10 AM 68.0 °F 68.0 °F 100% 29.93 in 10.0 mi ENE 8.1 mph - N/A   Mostly Cloudy
12:14 AM 68.0 °F 68.0 °F 100% 29.93 in 10.0 mi Variable 1.2 mph - N/A Rain Light Rain
12:19 AM 68.0 °F 68.0 °F 100% 29.93 in 10.0 mi East 6.9 mph - N/A Rain Light Rain
12:24 AM 68.0 °F 68.0 °F 100% 29.93 in 10.0 mi Variable 4.6 mph - N/A   Overcast
12:49 AM 68.0 °F 68.0 °F 100% 29.92 in 10.0 mi ENE 8.1 mph - N/A   Overcast
12:58 AM 67.6 °F 67.6 °F 100% 29.92 in 10.0 mi ENE 6.9 mph - 0.00 in   Mostly Cloudy
1:48 AM 68.0 °F 68.0 °F 100% 29.89 in 10.0 mi East 11.5 mph - N/A   Mostly Cloudy
1:53 AM 68.0 °F 68.0 °F 100% 29.89 in 10.0 mi East 8.1 mph - N/A   Mostly Cloudy
1:58 AM 67.3 °F 67.3 °F 100% 29.89 in 10.0 mi East 9.2 mph - N/A   Mostly Cloudy
2:58 AM 67.5 °F 67.5 °F 100% 29.87 in 10.0 mi East 8.1 mph - N/A   Mostly Cloudy
3:58 AM 68.0 °F 68.0 °F 100% 29.87 in 10.0 mi West 12.7 mph - N/A   Mostly Cloudy
4:13 AM 68.0 °F 68.0 °F 100% 29.87 in 10.0 mi WSW 6.9 mph 26.5 mph N/A   Mostly Cloudy
4:33 AM 68.0 °F 68.0 °F 100% 29.86 in 10.0 mi NNW 6.9 mph - N/A   Overcast
4:48 AM 68.0 °F 68.0 °F 100% 29.86 in 10.0 mi NW 4.6 mph - N/A   Mostly Cloudy
4:53 AM 68.0 °F 68.0 °F 100% 29.86 in 10.0 mi NW 2.3 mph - N/A   Overcast
4:58 AM 68.2 °F 68.0 °F 99% 29.86 in 10.0 mi WNW 3.5 mph - N/A   Overcast
5:33 AM 68.0 °F 68.0 °F 100% 29.86 in 10.0 mi North 2.3 mph - N/A   Overcast
5:48 AM 68.0 °F 68.0 °F 100% 29.86 in 10.0 mi North 2.3 mph - N/A   Overcast
5:53 AM 68.0 °F 68.0 °F 100% 29.86 in 10.0 mi North 2.3 mph - N/A   Overcast
5:54 AM 68.0 °F 68.0 °F 100% 29.87 in 10.0 mi North 1.2 mph - N/A Rain Light Rain
5:58 AM 68.0 °F 68.0 °F 100% 29.87 in 7.0 mi NW 1.2 mph - 0.00 in Rain Rain
6:03 AM 68.0 °F 68.0 °F 100% 29.87 in 2.0 mi West 4.6 mph - N/A Rain Heavy Rain
6:08 AM 68.0 °F 68.0 °F 100% 29.88 in 1.8 mi West 5.8 mph - N/A Rain Light Rain
6:13 AM 68.0 °F 68.0 °F 100% 29.87 in 4.0 mi NW 1.2 mph - N/A Rain Rain
6:28 AM 66.2 °F 66.2 °F 100% 29.87 in 3.0 mi Calm Calm - N/A Rain Light Rain
6:35 AM 66.2 °F 66.2 °F 100% 29.87 in 3.0 mi WNW 2.3 mph - N/A Rain , Thunderstorm Light Thunderstorms and Rain
6:40 AM 66.2 °F 66.2 °F 100% 29.87 in 3.0 mi Calm Calm - N/A Rain , Thunderstorm Thunderstorms and Rain
6:45 AM 66.2 °F 66.2 °F 100% 29.87 in 3.0 mi Variable 1.2 mph - N/A Rain , Thunderstorm Thunderstorms and Rain
6:50 AM 66.2 °F 66.2 °F 100% 29.87 in 3.0 mi Calm Calm - N/A Rain Rain
6:58 AM 66.4 °F 66.4 °F 100% 29.86 in 5.0 mi East 3.5 mph - 0.22 in Rain Light Rain
7:58 AM 66.6 °F 66.6 °F 100% 29.85 in 5.0 mi SSE 10.4 mph - 0.19 in Rain Rain
8:58 AM 66.2 °F 66.2 °F 100% 29.86 in 5.0 mi South 8.1 mph - 0.27 in Rain Rain
9:23 AM 68.0 °F 68.0 °F 100% 29.84 in 10.0 mi SE 8.1 mph - N/A Rain Light Rain
9:44 AM 68.0 °F 68.0 °F 100% 29.84 in 10.0 mi SE 8.1 mph - N/A   Scattered Clouds
9:54 AM 68.0 °F 68.0 °F 100% 29.83 in 10.0 mi SE 10.4 mph - N/A   Mostly Cloudy
9:58 AM 68.0 °F 68.0 °F 100% 29.83 in 10.0 mi SE 12.7 mph - 0.06 in   Mostly Cloudy
10:03 AM 68.0 °F 68.0 °F 100% 29.83 in 10.0 mi SE 12.7 mph - N/A   Mostly Cloudy
10:21 AM 68.0 °F 68.0 °F 100% 29.83 in 10.0 mi SE 10.4 mph - N/A Rain Light Rain
10:26 AM 68.0 °F 68.0 °F 100% 29.83 in 10.0 mi SSE 11.5 mph - N/A Rain Light Rain
10:35 AM 68.0 °F 68.0 °F 100% 29.83 in 10.0 mi SSE 13.8 mph - N/A   Overcast
10:55 AM 68.0 °F 68.0 °F 100% 29.82 in 10.0 mi SSE 13.8 mph - N/A   Mostly Cloudy
10:58 AM 68.7 °F 68.7 °F 100% 29.83 in 10.0 mi SSE 13.8 mph - 0.00 in   Mostly Cloudy
11:18 AM 71.6 °F 69.8 °F 94% 29.83 in 10.0 mi South 15.0 mph 24.2 mph N/A   Mostly Cloudy
11:58 AM 70.5 °F 68.4 °F 93% 29.82 in 10.0 mi South 12.7 mph 18.4 mph N/A   Overcast
12:08 PM 69.8 °F 68.0 °F 94% 29.82 in 10.0 mi South 15.0 mph - N/A Rain Light Rain
12:20 PM 69.8 °F 68.0 °F 94% 29.82 in 4.0 mi WSW 16.1 mph 20.7 mph N/A Rain Light Rain
12:30 PM 62.6 °F 60.8 °F 94% 29.83 in 5.0 mi West 16.1 mph - N/A Rain Light Rain
12:41 PM 60.8 °F 60.8 °F 100% 29.83 in 10.0 mi West 10.4 mph - N/A   Overcast
12:45 PM 60.8 °F 60.8 °F 100% 29.84 in 10.0 mi West 17.3 mph 21.9 mph N/A   Light Drizzle
12:48 PM 60.8 °F 59.0 °F 94% 29.84 in 10.0 mi West 15.0 mph 21.9 mph N/A   Overcast
12:53 PM 59.0 °F 59.0 °F 100% 29.83 in 8.0 mi West 12.7 mph 21.9 mph N/A Rain Light Rain
12:58 PM 59.7 °F 59.0 °F 97% 29.84 in 6.0 mi WSW 10.4 mph - 0.04 in Rain Light Rain
1:04 PM 59.0 °F 59.0 °F 100% 29.83 in 9.0 mi WSW 13.8 mph - N/A   Overcast
1:14 PM 59.0 °F 59.0 °F 100% 29.84 in 10.0 mi WSW 12.7 mph - N/A   Overcast
1:24 PM 59.0 °F 59.0 °F 100% 29.83 in 10.0 mi WSW 8.1 mph - N/A   Overcast
1:58 PM 60.4 °F 59.0 °F 95% 29.82 in 10.0 mi WSW 10.4 mph - 0.00 in   Overcast
2:03 PM 60.8 °F 59.0 °F 94% 29.82 in 10.0 mi WSW 12.7 mph - N/A   Overcast
2:32 PM 60.8 °F 59.0 °F 94% 29.81 in 10.0 mi WSW 11.5 mph - N/A Rain Light Rain
2:52 PM 59.0 °F 59.0 °F 100% 29.81 in 10.0 mi WSW 8.1 mph - N/A Rain Light Rain
2:57 PM 59.0 °F 59.0 °F 100% 29.81 in 10.0 mi WSW 6.9 mph - N/A   Light Drizzle
2:58 PM 59.0 °F 59.0 °F 100% 29.81 in 10.0 mi WSW 6.9 mph - 0.01 in   Light Drizzle
3:01 PM 59.0 °F 59.0 °F 100% 29.81 in 10.0 mi SW 8.1 mph - N/A   Overcast
3:05 PM 59.0 °F 59.0 °F 100% 29.81 in 10.0 mi WSW 6.9 mph - N/A Rain Light Rain
3:15 PM 59.0 °F 59.0 °F 100% 29.81 in 10.0 mi West 8.1 mph - N/A Rain Light Rain
3:35 PM 59.0 °F 59.0 °F 100% 29.81 in 2.5 mi WSW 9.2 mph - N/A Rain Light Rain
3:40 PM 59.0 °F 57.2 °F 94% 29.81 in 4.0 mi WSW 9.2 mph - N/A Rain Light Rain
3:50 PM 59.0 °F 57.2 °F 94% 29.82 in 2.5 mi WSW 12.7 mph - N/A Rain Light Rain
3:55 PM 59.0 °F 57.2 °F 94% 29.83 in 4.0 mi WSW 12.7 mph - N/A Rain Light Rain
3:58 PM 58.1 °F 57.6 °F 98% 29.82 in 4.0 mi SW 11.5 mph - 0.03 in Rain Light Rain
4:08 PM 59.0 °F 57.2 °F 94% 29.82 in 10.0 mi WSW 8.1 mph - N/A   Light Drizzle
4:14 PM 59.0 °F 59.0 °F 100% 29.82 in 10.0 mi WSW 8.1 mph - N/A   Overcast
4:19 PM 59.0 °F 59.0 °F 100% 29.81 in 10.0 mi WSW 8.1 mph - N/A   Overcast
4:29 PM 59.0 °F 59.0 °F 100% 29.82 in 10.0 mi WSW 8.1 mph - N/A   Overcast
4:34 PM 59.0 °F 59.0 °F 100% 29.82 in 10.0 mi WSW 8.1 mph - N/A   Overcast
4:39 PM 59.0 °F 59.0 °F 100% 29.82 in 10.0 mi WSW 9.2 mph - N/A   Overcast
4:58 PM 58.8 °F 57.6 °F 96% 29.80 in 10.0 mi WSW 8.1 mph - 0.01 in   Overcast
5:13 PM 59.0 °F 53.6 °F 82% 29.81 in 8.0 mi WSW 11.5 mph - N/A Rain Light Rain
5:18 PM 57.2 °F 53.6 °F 88% 29.81 in 2.5 mi WSW 10.4 mph - N/A Rain Light Rain
5:23 PM 57.2 °F 53.6 °F 88% 29.80 in 3.0 mi SW 8.1 mph - N/A Rain Light Rain
5:36 PM 57.2 °F 53.6 °F 88% 29.81 in 10.0 mi WSW 6.9 mph - N/A   Overcast
5:58 PM 57.2 °F 53.8 °F 88% 29.81 in 10.0 mi SW 6.9 mph - 0.03 in   Overcast
6:09 PM 57.2 °F 53.6 °F 88% 29.83 in 10.0 mi SSW 6.9 mph - N/A Rain Light Rain
6:24 PM 57.2 °F 53.6 °F 88% 29.81 in 10.0 mi SSW 5.8 mph - N/A   Overcast
6:46 PM 55.4 °F 51.8 °F 88% 29.83 in 10.0 mi SW 6.9 mph - N/A Rain Light Rain
6:58 PM 56.1 °F 51.3 °F 84% 29.82 in 10.0 mi SW 6.9 mph - 0.01 in Rain Light Rain
7:00 PM 55.4 °F 51.8 °F 88% 29.82 in 10.0 mi WSW 4.6 mph - N/A   Overcast
7:58 PM 55.4 °F 53.1 °F 92% 29.84 in 10.0 mi South 5.8 mph - 0.00 in   Overcast
8:58 PM 55.4 °F 53.4 °F 93% 29.84 in 10.0 mi South 3.5 mph - N/A   Overcast
9:58 PM 54.9 °F 53.4 °F 95% 29.86 in 10.0 mi WSW 3.5 mph - N/A   Overcast
10:58 PM 54.7 °F 52.7 °F 93% 29.89 in 10.0 mi West 5.8 mph - N/A   Overcast
11:58 PM 53.8 °F 51.1 °F 91% 29.92 in 10.0 mi West 6.9 mph - N/A   Overcast